EW7146 Weather Reports


time (UTC)temp
C
wind
direction
speed
KPH
gust
KPH
rain 1hr
cm
rain 24hr
cm
rain mn
cm
humidity
%
barometer
mb
20260507171153 21 286 3.2 9.7 0.00 0.00 0.00 35 1026.7
20260507170917 20 321 3.2 11.3 0.00 0.00 0.00 38 1026.8
20260507170153 20 272 4.8 19.3 0.00 0.00 0.00 37 1026.8
20260507165654 20 276 8.0 19.3 0.00 0.00 0.00 36 1026.9
20260507165410 19 264 6.4 20.9 0.00 0.00 0.00 37 1026.9
20260507164653 19 285 9.7 22.5 0.00 0.00 0.00 37 1027.0
20260507164150 19 302 4.8 22.5 0.00 0.00 0.00 38 1026.9
20260507163652 19 282 3.2 14.5 0.00 0.00 0.00 39 1026.9
20260507163153 19 274 6.4 17.7 0.00 0.00 0.00 39 1027.0
20260507162909 18 293 9.7 17.7 0.00 0.00 0.00 38 1027.0
20260507162422 18 266 8.0 20.9 0.00 0.00 0.00 39 1027.1
20260507161652 18 271 9.7 20.9 0.00 0.00 0.00 40 1027.2
20260507161152 18 214 6.4 19.3 0.00 0.00 0.00 40 1027.3
20260507160652 18 292 6.4 19.3 0.00 0.00 0.00 42 1027.5
20260507160152 18 272 3.2 17.7 0.00 0.00 0.00 42 1027.2
20260507155649 18 241 3.2 24.1 0.00 0.00 0.00 41 1027.2
20260507155420 17 288 4.8 24.1 0.00 0.00 0.00 42 1027.5
20260507154652 17 274 4.8 17.7 0.00 0.00 0.00 43 1027.5
20260507154416 17 289 4.8 16.1 0.00 0.00 0.00 43 1027.5
20260507153652 17 278 4.8 19.3 0.00 0.00 0.00 44 1027.6
20260507153151 17 264 6.4 24.1 0.00 0.00 0.00 44 1027.6
20260507152651 16 271 4.8 24.1 0.00 0.00 0.00 44 1027.6
20260507152151 16 333 6.4 17.7 0.00 0.00 0.00 45 1027.7
20260507151650 16 275 4.8 16.1 0.00 0.00 0.00 45 1027.7
20260507151148 16 336 4.8 16.1 0.00 0.00 0.00 46 1027.9
20260507150650 16 286 4.8 11.3 0.00 0.00 0.00 47 1027.9
20260507150151 16 262 4.8 11.3 0.00 0.00 0.00 46 1027.9
20260507145650 16 300 3.2 17.7 0.00 0.00 0.00 47 1027.9
20260507145412 15 289 4.8 17.7 0.00 0.00 0.00 48 1027.8
20260507144650 15 281 4.8 22.5 0.00 0.00 0.00 48 1027.8
20260507144150 15 278 8.0 22.5 0.00 0.00 0.00 48 1027.8
20260507143646 15 307 12.9 22.5 0.00 0.00 0.00 47 1027.7
20260507143145 15 290 3.2 19.3 0.00 0.00 0.00 49 1027.7
20260507142648 15 303 8.0 20.9 0.00 0.00 0.00 48 1027.8
20260507142418 15 248 9.7 20.9 0.00 0.00 0.00 49 1027.9
20260507141650 14 296 4.8 20.9 0.00 0.00 0.00 51 1028.0
20260507141149 14 271 4.8 22.5 0.00 0.00 0.00 50 1027.9
20260507140650 14 299 4.8 22.5 0.00 0.00 0.00 51 1027.8
20260507140149 14 281 6.4 22.5 0.00 0.00 0.00 51 1027.9
20260507135649 13 269 9.7 22.5 0.00 0.00 0.00 51 1027.8
20260507135146 13 274 3.2 19.3 0.00 0.00 0.00 52 1027.8
20260507134645 13 269 6.4 19.3 0.00 0.00 0.00 51 1027.7
20260507134146 13 283 6.4 16.1 0.00 0.00 0.00 52 1027.6
20260507133648 13 320 3.2 14.5 0.00 0.00 0.00 53 1027.6
20260507133409 13 313 6.4 14.5 0.00 0.00 0.00 53 1027.5
20260507132648 13 283 6.4 14.5 0.00 0.00 0.00 53 1027.5
20260507132148 13 314 6.4 14.5 0.00 0.00 0.00 52 1027.5
20260507131915 13 254 6.4 14.5 0.00 0.00 0.00 53 1027.6
20260507131144 13 264 4.8 16.1 0.00 0.00 0.00 52 1027.3
20260507130645 13 269 4.8 16.1 0.00 0.00 0.00 52 1027.2
20260507130144 13 262 8.0 14.5 0.00 0.00 0.00 52 1027.1
20260507125646 13 281 6.4 16.1 0.00 0.00 0.00 52 1027.1
20260507125147 13 290 8.0 16.1 0.00 0.00 0.00 52 1027.0
20260507124649 13 300 6.4 9.7 0.00 0.00 0.00 52 1027.0
20260507124147 13 283 6.4 17.7 0.00 0.00 0.00 52 1027.0
20260507123647 13 251 3.2 17.7 0.00 0.00 0.00 52 1027.0
20260507123408 13 279 6.4 17.7 0.00 0.00 0.00 51 1027.0
20260507122647 13 285 6.4 9.7 0.00 0.00 0.00 51 1027.0
20260507122147 13 278 3.2 9.7 0.00 0.00 0.00 51 1027.0
20260507121647 13 275 4.8 11.3 0.00 0.00 0.00 51 1027.1
20260507121145 13 272 6.4 14.5 0.00 0.00 0.00 50 1027.1
20260507120646 13 261 8.0 14.5 0.00 0.00 0.00 50 1027.1
20260507120148 13 264 3.2 14.5 0.00 0.00 0.00 50 1027.1
20260507115908 13 290 4.8 14.5 0.00 0.00 0.00 50 1027.1
20260507115146 13 282 3.2 9.7 0.00 0.00 0.00 50 1027.2
20260507114646 13 17 1.6 9.7 0.00 0.00 0.00 50 1027.1
20260507114404 13 17 4.8 19.3 0.00 0.00 0.00 50 1027.1
20260507113643 13 289 1.6 19.3 0.00 0.00 0.00 50 1027.1
20260507113142 13 283 3.2 8.0 0.00 0.00 0.00 50 1027.2
20260507112900 13 272 1.6 16.1 0.00 0.00 0.00 50 1027.2
20260507112145 13 131 3.2 16.1 0.00 0.00 0.00 49 1027.1
20260507111647 13 1 3.2 8.0 0.00 0.00 0.00 49 1027.1
20260507111146 13 310 3.2 9.7 0.00 0.00 0.00 49 1027.0
20260507110645 13 247 0.0 27.4 0.00 0.00 0.00 49 1027.0
20260507110145 13 329 4.8 27.4 0.00 0.00 0.00 49 1027.0
20260507105644 13 96 4.8 14.5 0.00 0.00 0.00 48 1026.9
20260507105405 13 320 3.2 17.7 0.00 0.00 0.00 48 1027.0
20260507104645 13 127 4.8 17.7 0.00 0.00 0.00 48 1027.0
20260507104146 14 324 1.6 17.7 0.00 0.00 0.00 48 1027.0
20260507103911 14 238 4.8 17.7 0.00 0.00 0.00 47 1026.9
20260507103144 14 310 3.2 16.1 0.00 0.00 0.00 48 1026.9
20260507102644 14 281 1.6 16.1 0.00 0.00 0.00 47 1027.0
20260507102407 14 320 3.2 14.5 0.00 0.00 0.00 47 1026.9
20260507101644 14 255 4.8 14.5 0.00 0.00 0.00 47 1027.0
20260507101144 14 262 3.2 14.5 0.00 0.00 0.00 48 1026.8
20260507100641 14 255 3.2 14.5 0.00 0.00 0.00 48 1026.9
20260507100140 14 319 3.2 9.7 0.00 0.00 0.00 48 1026.8
20260507095645 14 162 3.2 17.7 0.00 0.00 0.00 48 1026.7
20260507095144 14 268 4.8 17.7 0.00 0.00 0.00 47 1026.7
20260507094643 14 34 3.2 17.7 0.00 0.00 0.00 47 1026.7
20260507094400 14 262 4.8 17.7 0.00 0.00 0.00 48 1026.6
20260507093643 14 214 3.2 14.5 0.00 0.00 0.00 48 1026.6
20260507093144 14 265 1.6 9.7 0.00 0.00 0.00 48 1026.6
20260507092643 14 329 1.6 9.7 0.00 0.00 0.00 48 1026.5
20260507092412 14 299 3.2 11.3 0.00 0.00 0.00 48 1026.5
20260507092144 14 288 1.6 11.3 0.00 0.00 0.00 48 1026.5
20260507091144 14 30 3.2 14.5 0.00 0.00 0.00 47 1026.5
20260507090910 14 269 3.2 14.5 0.00 0.00 0.00 47 1026.4
20260507090143 14 276 4.8 14.5 0.00 0.00 0.00 47 1026.4
20260507085645 14 269 3.2 19.3 0.00 0.00 0.00 47 1026.4
20260507085142 14 307 3.2 19.3 0.00 0.00 0.00 47 1026.5
20260507084642 14 272 3.2 17.7 0.00 0.00 0.00 47 1026.5
20260507084141 14 244 1.6 17.7 0.00 0.00 0.00 47 1026.5
20260507083640 14 327 3.2 11.3 0.00 0.00 0.00 47 1026.4
20260507083402 15 206 3.2 24.1 0.00 0.00 0.00 47 1026.3
20260507082642 15 271 6.4 24.1 0.00 0.00 0.00 47 1026.3
20260507082624 15 268 6.4 20.9 0.00 0.00 0.00 47 1026.4
20260507081641 15 298 6.4 20.9 0.00 0.00 0.00 46 1026.4
20260507081141 15 286 3.2 22.5 0.00 0.00 0.00 47 1026.5
20260507080642 15 251 3.2 22.5 0.00 0.00 0.00 47 1026.5
20260507080142 15 299 6.4 19.3 0.00 0.00 0.00 47 1026.4
20260507075641 15 266 3.2 11.3 0.00 0.00 0.00 47 1026.4
20260507075404 15 268 1.6 9.7 0.00 0.00 0.00 47 1026.5
20260507074641 15 41 1.6 20.9 0.00 0.00 0.00 47 1026.5
20260507074409 15 316 3.2 20.9 0.00 0.00 0.00 48 1026.3
20260507073641 14 312 4.8 14.5 0.00 0.00 0.00 48 1026.3
20260507073141 15 288 1.6 14.5 0.00 0.00 0.00 48 1026.3
20260507072902 15 296 0.0 16.1 0.00 0.00 0.00 48 1026.2
20260507072140 15 303 6.4 16.1 0.00 0.00 0.00 48 1026.1
20260507071641 15 269 6.4 19.3 0.00 0.00 0.00 47 1026.1
20260507071145 15 276 3.2 22.5 0.00 0.00 0.00 47 1026.0
20260507070641 15 299 12.9 22.5 0.00 0.00 0.00 46 1026.1
20260507070404 15 282 11.3 25.7 0.00 0.00 0.00 46 1026.1
20260507065640 15 271 9.7 25.7 0.00 0.00 0.00 46 1026.0
20260507065140 15 264 9.7 20.9 0.00 0.00 0.00 45 1026.0
20260507064639 15 274 8.0 20.9 0.00 0.00 0.00 45 1026.1
20260507064139 15 271 6.4 16.1 0.00 0.00 0.00 46 1026.2
20260507063907 15 258 4.8 19.3 0.00 0.00 0.00 45 1026.2
20260507063141 15 245 4.8 19.3 0.00 0.00 0.00 46 1026.2
20260507062904 15 295 1.6 19.3 0.00 0.00 0.00 46 1026.2
20260507062140 15 261 1.6 14.5 0.00 0.00 0.00 47 1025.7
20260507061639 15 293 4.8 14.5 0.00 0.00 0.00 47 1025.7
20260507061139 15 290 3.2 17.7 0.00 0.00 0.00 47 1025.8
20260507060639 15 52 3.2 17.7 0.00 0.00 0.00 47 1026.0
20260507060138 16 302 9.7 17.7 0.00 0.00 0.00 46 1025.7
20260507055638 15 264 6.4 17.7 0.00 0.00 0.00 47 1025.8
20260507055138 16 314 9.7 24.1 0.00 0.00 0.00 46 1026.0
20260507054638 16 293 6.4 24.1 0.00 0.00 0.00 46 1026.1
20260507054138 15 281 6.4 17.7 0.00 0.00 0.00 47 1026.0
20260507053639 15 281 4.8 9.7 0.00 0.00 0.00 47 1026.1
20260507053137 16 237 4.8 9.7 0.00 0.00 0.00 46 1026.2
20260507052637 16 276 4.8 9.7 0.00 0.00 0.00 45 1026.2
20260507052357 16 248 3.2 16.1 0.00 0.00 0.00 46 1026.1
20260507051638 16 290 1.6 20.9 0.00 0.00 0.00 45 1026.1
20260507051359 16 286 6.4 20.9 0.00 0.00 0.00 45 1026.0
20260507050636 16 324 6.4 16.1 0.00 0.00 0.00 44 1026.1
20260507050138 16 295 8.0 16.1 0.00 0.00 0.00 44 1026.2
20260507045637 16 272 3.2 8.0 0.00 0.00 0.00 45 1026.2
20260507045139 16 285 1.6 11.3 0.00 0.00 0.00 45 1026.2
20260507044637 16 289 4.8 11.3 0.00 0.00 0.00 44 1026.2
20260507044136 17 281 4.8 19.3 0.00 0.00 0.00 44 1026.1
20260507043637 17 279 9.7 19.3 0.00 0.00 0.00 44 1026.1
20260507043357 17 258 4.8 30.6 0.00 0.00 0.00 43 1026.0
20260507042637 17 282 3.2 30.6 0.00 0.00 0.00 43 1026.1
20260507042136 17 283 11.3 27.4 0.00 0.00 0.00 43 1026.1
20260507041637 17 240 4.8 27.4 0.00 0.00 0.00 43 1026.1
20260507041136 17 240 6.4 16.1 0.00 0.00 0.00 43 1025.8
20260507040636 17 271 4.8 16.1 0.00 0.00 0.00 43 1025.8
20260507040135 17 275 3.2 25.7 0.00 0.00 0.00 42 1025.7
20260507035635 17 290 11.3 27.4 0.00 0.00 0.00 42 1025.6
20260507035135 17 245 4.8 27.4 0.00 0.00 0.00 42 1025.6
20260507034635 17 309 3.2 14.5 0.00 0.00 0.00 41 1025.5
20260507034135 18 21 1.6 8.0 0.00 0.00 0.00 41 1025.4
20260507033635 18 281 1.6 24.1 0.00 0.00 0.00 40 1025.2
20260507033136 18 288 3.2 24.1 0.00 0.00 0.00 38 1025.1
20260507032634 18 269 12.9 24.1 0.00 0.00 0.00 38 1025.0
20260507032136 18 275 9.7 22.5 0.00 0.00 0.00 38 1024.8
20260507031857 18 290 9.7 20.9 0.00 0.00 0.00 37 1024.9
20260507031135 19 268 1.6 24.1 0.00 0.00 0.00 37 1024.9
20260507030855 19 283 9.7 24.1 0.00 0.00 0.00 36 1024.7
20260507030134 19 274 6.4 22.5 0.00 0.00 0.00 36 1024.7
20260507025635 19 295 3.2 22.5 0.00 0.00 0.00 36 1024.7
20260507025134 20 51 1.6 17.7 0.00 0.00 0.00 35 1024.6
20260507024635 20 282 6.4 19.3 0.00 0.00 0.00 34 1024.5
20260507024134 20 255 3.2 19.3 0.00 0.00 0.00 34 1024.4
20260507023635 20 272 6.4 16.1 0.00 0.00 0.00 33 1024.5
20260507023401 21 326 3.2 16.1 0.00 0.00 0.00 32 1024.5
20260507022858 21 255 1.6 11.3 0.00 0.00 0.00 32 1024.2
20260507022133 21 289 4.8 11.3 0.00 0.00 0.00 31 1024.4
20260507021633 22 295 4.8 9.7 0.00 0.00 0.00 31 1024.4
20260507021134 22 268 3.2 8.0 0.00 0.00 0.00 30 1024.4
20260507020633 22 244 0.0 9.7 0.00 0.00 0.00 31 1024.2
20260507020134 22 265 3.2 14.5 0.00 0.00 0.00 30 1024.2
20260507015633 22 37 1.6 14.5 0.00 0.00 0.00 30 1024.1
20260507015357 22 307 1.6 17.7 0.00 0.00 0.00 30 1024.1
20260507014633 22 298 3.2 17.7 0.00 0.00 0.00 30 1024.0
20260507014132 23 344 3.2 24.1 0.00 0.00 0.00 29 1024.0
20260507013632 23 271 8.0 24.1 0.00 0.00 0.00 28 1024.0
20260507013132 23 51 3.2 20.9 0.00 0.00 0.00 29 1024.0
20260507012633 23 290 4.8 20.9 0.00 0.00 0.00 28 1024.0
20260507012132 23 340 3.2 19.3 0.00 0.00 0.00 28 1023.9
20260507011635 23 38 3.2 19.3 0.00 0.00 0.00 29 1024.0
20260507011132 23 272 3.2 16.1 0.00 0.00 0.00 28 1024.0
20260507010633 24 299 1.6 16.1 0.00 0.00 0.00 27 1024.0
20260507010132 24 286 4.8 16.1 0.00 0.00 0.00 27 1023.9
20260507005849 24 313 1.6 17.7 0.00 0.00 0.00 28 1023.9
20260507005131 23 268 3.2 17.7 0.00 0.00 0.00 28 1023.8
20260507004631 23 296 4.8 20.9 0.00 0.00 0.00 28 1023.7
20260507004358 23 61 8.0 20.9 0.00 0.00 0.00 27 1023.8
20260507003631 23 296 6.4 20.9 0.00 0.00 0.00 28 1023.8
20260507003132 23 305 6.4 17.7 0.00 0.00 0.00 28 1023.7
20260507002630 24 334 3.2 17.7 0.00 0.00 0.00 27 1023.7
20260507002139 25 330 6.4 16.1 0.00 0.00 0.00 27 1023.6
20260507001630 25 323 4.8 16.1 0.00 0.00 0.00 26 1023.7
20260507001131 25 51 4.8 16.1 0.00 0.00 0.00 26 1023.5
20260507000631 25 344 3.2 16.1 0.00 0.00 0.00 26 1023.4
20260507000346 25 288 6.4 16.1 0.00 0.00 0.00 27 1023.3
20260506235631 25 282 4.8 24.1 0.00 0.00 0.00 26 1023.3
20260506235130 25 278 6.4 24.1 0.00 0.00 0.00 26 1023.2
20260506234631 25 298 4.8 11.3 0.00 0.00 0.00 27 1023.3
20260506234130 25 285 6.4 11.3 0.00 0.00 0.00 27 1023.4
20260506233632 25 295 3.2 11.3 0.00 0.00 0.00 29 1023.3
20260506233129 25 16 3.2 6.4 0.00 0.00 0.00 27 1023.3
20260506232631 25 279 0.0 11.3 0.00 0.00 0.00 29 1023.3
20260506232130 25 290 3.2 11.3 0.00 0.00 0.00 29 1023.3
20260506231628 25 305 1.6 8.0 0.00 0.00 0.00 28 1023.3
20260506231130 25 353 0.0 4.8 0.00 0.00 0.00 30 1023.2
20260506230629 25 227 0.0 14.5 0.00 0.00 0.00 29 1023.3
20260506230130 25 317 0.0 14.5 0.00 0.00 0.00 30 1023.4
20260506225851 25 72 1.6 9.7 0.00 0.00 0.00 29 1023.4
20260506225130 25 290 1.6 9.7 0.00 0.00 0.00 29 1023.5
20260506224629 25 317 1.6 9.7 0.00 0.00 0.00 28 1023.4
20260506224349 25 313 3.2 17.7 0.00 0.00 0.00 28 1023.5
20260506223629 25 278 3.2 17.7 0.00 0.00 0.00 28 1023.5
20260506223354 25 312 3.2 17.7 0.00 0.00 0.00 28 1023.5
20260506222630 26 248 1.6 11.3 0.00 0.00 0.00 29 1023.6
20260506222127 26 333 3.2 14.5 0.00 0.00 0.00 29 1023.5
20260506221629 26 240 1.6 14.5 0.00 0.00 0.00 29 1023.6
20260506221128 26 283 1.6 17.7 0.00 0.00 0.00 29 1023.5
20260506220627 26 1 3.2 17.7 0.00 0.00 0.00 29 1023.5
20260506220128 26 296 4.8 14.5 0.00 0.00 0.00 28 1023.6
20260506215628 26 305 1.6 8.0 0.00 0.00 0.00 29 1023.6
20260506215345 27 317 3.2 8.0 0.00 0.00 0.00 28 1023.5
20260506214627 27 65 3.2 8.0 0.00 0.00 0.00 29 1023.7
20260506214129 27 285 1.6 20.9 0.00 0.00 0.00 28 1023.5
20260506213627 27 326 3.2 25.7 0.00 0.00 0.00 27 1023.4
20260506213128 27 38 6.4 25.7 0.00 0.00 0.00 27 1023.5
20260506212627 27 0 3.2 11.3 0.00 0.00 0.00 29 1023.5
20260506212127 27 31 3.2 11.3 0.00 0.00 0.00 28 1023.6
20260506211849 27 354 3.2 8.0 0.00 0.00 0.00 28 1023.6
20260506211126 27 131 3.2 20.9 0.00 0.00 0.00 28 1023.5
20260506210627 27 286 3.2 20.9 0.00 0.00 0.00 27 1023.4
20260506210126 27 288 4.8 9.7 0.00 0.00 0.00 29 1023.4
20260506205627 27 248 1.6 14.5 0.00 0.00 0.00 27 1023.6
20260506205126 27 268 3.2 19.3 0.00 0.00 0.00 27 1023.5
20260506204851 27 353 4.8 19.3 0.00 0.00 0.00 27 1023.6
20260506204125 27 272 4.8 16.1 0.00 0.00 0.00 27 1023.6
20260506203626 27 295 1.6 19.3 0.00 0.00 0.00 30 1023.6
20260506203126 27 262 3.2 19.3 0.00 0.00 0.00 28 1023.6
20260506202624 27 240 3.2 9.7 0.00 0.00 0.00 28 1023.6
20260506202126 27 298 4.8 16.1 0.00 0.00 0.00 28 1023.6
20260506201625 27 18 4.8 16.1 0.00 0.00 0.00 27 1023.6
20260506201130 27 295 3.2 9.7 0.00 0.00 0.00 30 1023.8
20260506200625 27 286 3.2 11.3 0.00 0.00 0.00 29 1023.8
20260506200350 27 31 4.8 11.3 0.00 0.00 0.00 29 1023.8
20260506195624 27 17 4.8 16.1 0.00 0.00 0.00 31 1023.8
20260506195125 26 293 3.2 16.1 0.00 0.00 0.00 29 1024.0
20260506194625 26 107 4.8 17.7 0.00 0.00 0.00 30 1024.0
20260506194124 26 251 3.2 17.7 0.00 0.00 0.00 31 1024.1
20260506193625 26 282 8.0 17.7 0.00 0.00 0.00 31 1023.9
20260506193124 26 285 4.8 9.7 0.00 0.00 0.00 31 1023.9
20260506192625 26 275 3.2 19.3 0.00 0.00 0.00 32 1024.1
20260506192124 26 288 8.0 24.1 0.00 0.00 0.00 30 1024.0
20260506191623 26 289 8.0 24.1 0.00 0.00 0.00 29 1024.0
20260506191123 26 341 3.2 17.7 0.00 0.00 0.00 31 1024.0
20260506190623 26 20 1.6 19.3 0.00 0.00 0.00 31 1024.0
20260506190124 26 314 6.4 22.5 0.00 0.00 0.00 31 1024.1
20260506185624 26 290 8.0 22.5 0.00 0.00 0.00 28 1023.9
20260506185124 27 292 3.2 14.5 0.00 0.00 0.00 31 1024.0
20260506184847 26 248 3.2 14.5 0.00 0.00 0.00 31 1024.0
20260506184125 26 278 3.2 9.7 0.00 0.00 0.00 31 1024.0
20260506183623 26 283 3.2 8.0 0.00 0.00 0.00 33 1023.9
20260506183611 26 321 3.2 14.5 0.00 0.00 0.00 32 1023.9
20260506182623 26 341 3.2 14.5 0.00 0.00 0.00 32 1024.0
20260506182122 26 333 3.2 16.1 0.00 0.00 0.00 32 1024.0
20260506181623 26 293 1.6 16.1 0.00 0.00 0.00 31 1024.0
20260506181122 26 250 3.2 19.3 0.00 0.00 0.00 30 1024.1
20260506180623 26 27 3.2 19.3 0.00 0.00 0.00 31 1024.0
20260506180122 26 303 3.2 14.5 0.00 0.00 0.00 30 1024.1
20260506175624 26 289 3.2 17.7 0.00 0.00 0.00 30 1024.1
20260506175342 26 20 3.2 17.7 0.00 0.00 0.00 31 1024.1
20260506174621 26 28 3.2 19.3 0.00 0.00 0.00 31 1024.0
20260506174604 26 272 3.2 19.3 0.00 0.00 0.00 29 1024.1
20260506173621 26 255 6.4 16.1 0.00 0.00 0.00 31 1024.2
20260506173122 26 309 3.2 14.5 0.00 0.00 0.00 32 1024.1
20260506172621 26 285 1.6 14.5 0.00 0.00 0.00 32 1024.1
20260506172123 26 257 4.8 24.1 0.00 0.00 0.00 31 1024.0
20260506171843 25 25 3.2 24.1 0.00 0.00 0.00 31 1024.0